Regional Weather Roundup
Issued by NWS

Home | Current Version | Previous Version | Text Only | Print | Product List | Glossary On
Versions: 1 2 3 4 5 6 7 8 9 10 11 12 13 14 15 16 17 18 19 20 21 22 23 24 25 26 27 28 29 30 31 32 33 34 35 36 37 38 39 40 41 42 43 44 45 46 47 48 49 50
000
ASUS46 KSTO 011804
RWRCA

NORTHERN AND CENTRAL CA REGIONAL WEATHER ROUNDUP
NATIONAL WEATHER SERVICE SACRAMENTO CA
1100 AM PDT WED APR 01 2015

NOTE: FAIR INDICATES FEW OR NO CLOUDS BELOW 12,000 FEET WITH NO
SIGNIFICANT WEATHER AND/OR OBSTRUCTIONS TO VISIBILITY.

CAZ001-003-011900-
NORTHWEST AREA

CITY           SKY/WX    TMP DP  RH WIND       PRES   REMARKS
CRESCENT CITY  SUNNY     53  44  71 NW12      30.33S
UKIAH          PTSUNNY   56  32  40 N5        30.20F
$$

CAZ006-505>513-011900-
BAY AREA

CITY           SKY/WX    TMP DP  RH WIND       PRES   REMARKS
SANTA ROSA     MOSUNNY   60  28  29 N15G25    30.17F
SAN RAFAEL     N/A       53  MM  MM MISG
NAPA           SUNNY     57  36  45 W6        30.18F
CONCORD        SUNNY     61  31  32 W9        30.18F
OAKLAND CITY   N/A       55  MM  MM MISG
OAKLAND        MOSUNNY   60  30  32 NW10      30.19S
SAN FRAN CITY  N/A       59  MM  33 MISG
SAN FRAN ARPT  PTSUNNY   61  37  41 W13       30.20S
LIVERMORE      SUNNY     61  36  39 W7        30.17F
HAYWARD        SUNNY     63  33  32 VRB5      30.18F
REDWOOD CITY   N/A       MM  MM  MM MISG
MOFFETT ARPT   SUNNY     60  34  37 N10       30.19F
SAN JOSE ARPT  PTSUNNY   59  39  47 NW9       30.19F
$$
CAZ034-037-514>518-011900-
CENTRAL COAST

CITY           SKY/WX    TMP DP  RH WIND       PRES   REMARKS
WATSONVILLE    SUNNY     61  45  55 E5        30.18F
SALINAS        SUNNY     61  39  44 SW5       30.18F
MONTEREY       MOSUNNY   57  39  51 W6        30.19F
SAN LUIS OBISP SUNNY     65  34  31 N16       30.11S
SANTA MARIA    SUNNY     67  39  35 NW20      30.09S
$$
CAZ015-016-011900-
NORTHERN SACRAMENTO VALLEY

CITY           SKY/WX    TMP DP  RH WIND       PRES   REMARKS
REDDING        MOSUNNY   62  30  29 N15G21    30.16F
RED BLUFF      PTSUNNY   61  28  28 N18       30.17S
OROVILLE       CLOUDY    58  33  39 NW9       30.15S
$$
CAZ016>018-011900-
SOUTHERN SACRAMENTO VALLEY

CITY           SKY/WX    TMP DP  RH WIND       PRES   REMARKS
AUBURN         MOSUNNY   57  34  41 SW6       30.12S
BEALE AFB      PTSUNNY   58  34  40 W8        30.12F
LINCOLN        FAIR      59  32  36 NW7       30.14S
MARYSVILLE     MOSUNNY   62  34  35 N12       30.15S
SAC INTL ARPT  PTSUNNY   61  31  32 NW14G22   30.14F
MATHER AIRPORT MOSUNNY   59  32  36 NW9       30.15S
DOWNTOWN SAC   N/A       60  MM  MM MISG
SAC EXEC ARPT  SUNNY     62  33  33 NW9G20    30.15S
VACAVILLE      SUNNY     66  25  21 NW8       30.17S
TRAVIS AFB     SUNNY     63  29  28 VRB2      30.14F
$$
CAZ019>021-011900-
SAN JOAQUIN VALLEY

CITY           SKY/WX    TMP DP  RH WIND       PRES   REMARKS
STOCKTON       SUNNY     62  29  28 NW18G26   30.14F
MODESTO        SUNNY     64  30  27 NW14      30.14S
MERCED         SUNNY     61  31  32 NW17G23   30.13R
LEMOORE        PTSUNNY   65  27  23 N23       30.14F
FRESNO         MOSUNNY   59  35  40 W5        30.14S
HANFORD        SUNNY     64  31  28 NW12      30.14F
PORTERVILLE    SUNNY     61  30  31 SW10G16   30.14F
BAKERSFIELD    SUNNY     62  27  26 NW8G17    30.16S
$$
CAZ011-012-071-011900-
NORTHERN MOUNTAINS

CITY           SKY/WX    TMP DP  RH WIND       PRES   REMARKS
YREKA          SUNNY     47  26  44 N10       30.26F
MOUNT SHASTA   SUNNY     46  27  47 NW8       30.21S
ALTURAS        SUNNY     42  23  46 CALM      30.19F
$$
CAZ011-012-071-011900-
SIERRA NEVADA MTNS

CITY           SKY/WX    TMP DP  RH WIND       PRES   REMARKS
BLUE CANYON    PTSUNNY   46   6  19 VRB5      30.12S
TAHOE VLY ARPT MOSUNNY   46  21  37 NE7       30.08F
MAMMOTH LAKES  FAIR      54  -2  10 SE3       30.07F
$$



USA.gov is the U.S. government's official web portal to all federal, state and local government web resources and services.